Location: Newark
(25.0000°N, 73.5000°E)
Time: 18:58:57
(UTC+00:00)

Altair - Pass Details

Date: 07 March 2021
Orbit: 1501 x 1683 km, 47.2° (Epoch: 10 April)

Event Time Altitude Azimuth Distance (km) Brightness Sun altitude
Rises 09:06:15 0° 181° (S) 4,661 10.4 49.8°
Reaches altitude 10° 09:10:39 10° 163° (SSE) 3,660 9.9 49.1°
Maximum altitude 09:16:14 18° 125° (SE) 3,075 9.2 48.2°
Drops below altitude 10° 09:21:48 10° 86° (E) 3,647 9.3 47.3°
Sets 09:26:06 0° 69° (ENE) 4,637 9.6 46.5°
